STARLINK-33674, 63329

Orbit data source: Space-Track

STARLINK-33674, 63329 is a payload satellite owned by SpaceX/Seattle (US) in LEO that was launched on Tue, 18 Mar 2025 UTC via an FALCON 9 launch vehicle from the Air Force Eastern Test Range (AFETR). Payload-class satellites include a variety of spacecraft equipped with specific instruments for various scientific and technological missions. These include communications satellites like Starlink; space stations such as the ISS; scientific satellites like the Hubble; Earth observation satellites from companies like Planet Labs, Umbra, and HawkEye 360; GPS; miniature CubeSats for education and research; and military/defense satellites.

Loading next visibility...
Identifier
63329, 2025-057Y
Orbit
LEO
Country
Flag of USUS
Related business
Manufacturer
SpaceX/Seattle
Mission
Operational Commercial Communications
Bus & Motor
STARLINK V2MO, Unknown motor
Mass
575 kg wet, ~530 kg dry
Launch date (UTC)
2025-03-18 (11 months ago)
Launch vehicle
FALCON 9
Launch site
Air Force Eastern Test Range (AFETR)
Object type
Payload
Rocket body
Debris
Shape & HBR
Box + 2 Pan, 17.7 m
Radar Cross Section
36.964 m², Large (>1 m²)

Expand to show TLE details & history
Last TLE update: 16 hours ago

TLE from 16 hours ago
0 STARLINK-33674
1 63329U 25057Y   26034.21124289  .00016814  00000-0  61885-3 0  9997
2 63329  42.9978 225.6277 0001151 302.5682  57.5058 15.27594177 50507
Epoch: 2026-02-03T05:04Z
TLE epoch observation values (Epoch: 2026-02-03T05:04:11.385Z)
Latitude
-0.00005°
Longitude
16.18477°
Altitude
482.358 km
Speed
7.626 km/s
True Right ascension
15h 02m 30s
True Declination
0° 00' 00"
Sunlit
Object was in daylight at epoch
Visualization orbit readout
Latitude
Unknown
Longitude
Unknown
Altitude
Unknown
Speed
Unknown
Apparent Right ascension
Unknown
Apparent Declination
Unknown
Sunlit
N/A
Visualization observer readout
Local Sidereal Time
22:38:38
Azimuth
Unknown
Elevation
Unknown
Doppler factor
Unknown
Orbital elements
Apogee altitude
485.742 km
Perigee altitude
484.162 km
Semi-major axis
6,863.089 km
Eccentricity
0.00012
Inclination
42.9978°
RAAN
225.6277°
Arg. of periapsis
302.5682°
True anomaly
57.51693°
Mean anomaly
57.5058°
Eccentric anomaly
57.51136°
Mean motion
3.81737 °/min
Orbital period
94.31 mins
BSTAR
0.00061885
Loading maneuver chart data...
Computing Atmospheric mass density...
Loading historical data...
Loading historical data...
Loading historical data...
Loading historical data...
Loading historical data...
Loading historical data...
Loading historical data...

Documentation

Showing up to 5 results
|